Location: Goettingen
(51.5300°N, 9.9433°E)
Time: 07:48:17
(UTC+01:00)

ISS - Pass Details

Date: 07 December 2018
Orbit: 401 x 408 km, 51.6° (Epoch: 12 December)

Event Time Altitude Azimuth Distance (km) Brightness Sun altitude
Rises 16:50:51 0° 271° (W) 2,319 1.2 -5.9°
Reaches altitude 10° 16:52:55 10° 271° (W) 1,459 0.1 -6.2°
Maximum altitude 16:56:12 86° 357° (N) 409 -3.8 -6.6°
Drops below altitude 10° 16:59:28 10° 90° (E) 1,456 -1.6 -7.1°
Enters shadow 17:00:03 - 91° (E) 1,695 -1.2 -7.2°
